Regional Weather Roundup
Issued by NWS

Home | Current Version | Previous Version | Graphics & Text | Print | Product List | Glossary On
Versions: 1 2 3 4 5 6 7 8 9 10 11 12 13 14 15 16 17 18 19 20 21 22 23 24 25 26 27 28 29 30 31 32 33 34 35 36 37 38 39 40 41 42 43 44 45 46 47 48 49 50
000
ASUS43 KFSD 192302
RWRSD

WEATHER ROUNDUP FOR SOUTH DAKOTA
NATIONAL WEATHER SERVICE SIOUX FALLS SD
600 PM CDT SAT APR 19 2014

NOTE: "FAIR" INDICATES FEW OR NO CLOUDS BELOW 12,000 FEET WITH NO
SIGNIFICANT WEATHER AND/OR OBSTRUCTIONS TO VISIBILITY.


SDZ001>005-009-010-012>017-200000-
NORTHWEST AND NORTH CENTRAL SOUTH DAKOTA

CITY           SKY/WX    TMP DP  RH WIND       PRES   REMARKS
FAITH            N/A     65  23  20 SW8       29.97F
MOBRIDGE       SUNNY     68  25  19 W12       29.93S
$$

SDZ012>016-024>037-041>051-057-063-072>074-200000-
SOUTHWEST AND SOUTH CENTRAL SOUTH DAKOTA

CITY           SKY/WX    TMP DP  RH WIND       PRES   REMARKS
RAPID CTY ARPT MOSUNNY   63  36  36 S21       29.98S
PIERRE         PTSUNNY   68  22  17 W7        29.97F
CUSTER         MOSUNNY   56  21  25 SW5G20    30.01F
ELLSWORTH AFB  MOSUNNY   63  37  38 S18       29.97S
PHILIP         PTSUNNY   66  25  21 S8        29.99S
PINE RIDGE     PTSUNNY   63  26  24 S8        30.00F
WINNER         FAIR      70  22  16 E6        30.01R
$$

SDZ004>011-016>023-039-040-200000-
NORTHEAST SOUTH DAKOTA

CITY           SKY/WX    TMP DP  RH WIND       PRES   REMARKS
ABERDEEN       MOSUNNY   69  23  17 W14       29.95S
WATERTOWN      MOSUNNY   67  24  19 W10       29.98R
SISSETON         N/A     69  30  23 NW12      29.94R
$$

SDZ017-020-022-023-036>040-048>070-200000-
SOUTHEAST SOUTH DAKOTA

CITY           SKY/WX    TMP DP  RH WIND       PRES   REMARKS
SIOUX FALLS    CLOUDY    70  29  21 NW6       29.98F
HURON          PTSUNNY   68  23  18 SW6       29.98S
CHAMBERLAIN      N/A     70  22  16 N9        30.00S
MITCHELL       PTSUNNY   68  22  17 VRB5      30.00F
YANKTON        PTSUNNY   70  41  35 NW8       29.99S
$$

ABBREVIATIONS USED IN REMARKS
   TC - TEMPERATURE IN CELSIUS
  WCI - WIND CHILL INDEX
   HX - HEAT INDEX
  VSB - VISIBILITY




USA.gov is the U.S. government's official web portal to all federal, state and local government web resources and services.